�������l�o���
Date,Time,MP-1(��Sv/h),MP-2(��Sv/h),MP-3(��Sv/h),MP-4(��Sv/h),MP-5(��Sv/h),MP-6(��Sv/h),MP-7(��Sv/h),MP-8(��Sv/h),����,����(m/s),���J
2017/01/30,00:00,1.075,1.809,1.180,2.036,1.416,0.561,1.026,0.951,��쓌,2.8,��
2017/01/30,00:10,1.074,1.809,1.181,2.041,1.416,0.561,1.027,0.952,��쓌,3.4,��
2017/01/30,00:20,1.076,1.808,1.180,2.037,1.416,0.561,1.025,0.951,��쓌,4.6,��
2017/01/30,00:30,1.073,1.809,1.180,2.039,1.415,0.559,1.026,0.951,��쓌,4.8,��
2017/01/30,00:40,1.075,1.810,1.181,2.037,1.416,0.561,1.023,0.951,��,4.3,��
2017/01/30,00:50,1.075,1.807,1.178,2.040,1.415,0.560,1.025,0.952,��,3.0,��
2017/01/30,01:00,1.074,1.811,1.181,2.040,1.414,0.562,1.027,0.953,��,2.8,��
2017/01/30,01:10,1.074,1.809,1.181,2.036,1.418,0.561,1.026,0.952,��,2.3,��
2017/01/30,01:20,1.074,1.810,1.180,2.040,1.417,0.564,1.026,0.952,��,2.0,��
2017/01/30,01:30,1.077,1.810,1.179,2.038,1.415,0.562,1.023,0.952,��,1.7,��
2017/01/30,01:40,1.077,1.810,1.182,2.039,1.415,0.562,1.027,0.953,��쐼,1.5,��
2017/01/30,01:50,1.077,1.809,1.178,2.039,1.416,0.561,1.027,0.954,��쐼,1.5,��
2017/01/30,02:00,1.074,1.810,1.179,2.038,1.418,0.560,1.025,0.953,��쐼,1.9,��
2017/01/30,02:10,1.076,1.808,1.179,2.040,1.418,0.560,1.026,0.953,��쐼,1.7,��
2017/01/30,02:20,1.075,1.808,1.181,2.039,1.416,0.561,1.028,0.953,��쐼,1.2,��
2017/01/30,02:30,1.074,1.810,1.179,2.039,1.416,0.561,1.025,0.951,-,CALM,��
2017/01/30,02:40,1.075,1.807,1.179,2.039,1.417,0.562,1.027,0.953,-,CALM,��
2017/01/30,02:50,1.077,1.809,1.179,2.040,1.418,0.562,1.026,0.954,��쓌,1.5,��
2017/01/30,03:00,1.076,1.812,1.177,2.035,1.416,0.562,1.026,0.953,��,1.2,��
2017/01/30,03:10,1.072,1.810,1.179,2.041,1.413,0.563,1.025,0.953,�쐼,1.1,��
2017/01/30,03:20,1.075,1.809,1.179,2.040,1.417,0.561,1.025,0.952,�쐼,2.0,��
2017/01/30,03:30,1.075,1.808,1.179,2.037,1.418,0.563,1.028,0.952,�쐼,3.1,��
2017/01/30,03:40,1.077,1.809,1.180,2.037,1.416,0.562,1.026,0.951,��쐼,3.2,��
2017/01/30,03:50,1.078,1.810,1.180,2.036,1.416,0.563,1.028,0.953,��쐼,3.3,��
2017/01/30,04:00,1.076,1.810,1.180,2.041,1.417,0.563,1.028,0.952,��쐼,4.3,��
2017/01/30,04:10,1.076,1.807,1.178,2.040,1.417,0.563,1.028,0.953,��쐼,4.4,��
2017/01/30,04:20,1.077,1.805,1.181,2.040,1.416,0.562,1.028,0.952,��쐼,3.6,��
2017/01/30,04:30,1.077,1.808,1.181,2.039,1.418,0.562,1.027,0.953,��쐼,2.5,��
2017/01/30,04:40,1.075,1.810,1.181,2.038,1.416,0.564,1.028,0.953,�쐼,1.5,��
2017/01/30,04:50,1.076,1.808,1.182,2.039,1.416,0.565,1.027,0.953,�쐼,1.9,��
2017/01/30,05:00,1.078,1.806,1.180,2.039,1.415,0.563,1.027,0.953,��,3.1,��
2017/01/30,05:10,1.072,1.810,1.181,2.037,1.416,0.562,1.027,0.953,���k��,3.3,��
2017/01/30,05:20,1.076,1.812,1.178,2.040,1.416,0.560,1.027,0.952,���k��,3.1,��
2017/01/30,05:30,1.074,1.809,1.180,2.040,1.419,0.562,1.027,0.954,�k��,3.5,��
2017/01/30,05:40,1.074,1.812,1.177,2.042,1.414,0.562,1.028,0.953,�k�k��,4.8,��
2017/01/30,05:50,1.074,1.806,1.181,2.040,1.417,0.562,1.027,0.953,�k�k��,5.5,��
2017/01/30,06:00,1.076,1.808,1.179,2.041,1.418,0.563,1.028,0.950,�k,5.6,��
2017/01/30,06:10,1.076,1.810,1.179,2.041,1.417,0.561,1.028,0.955,�k,5.6,��
2017/01/30,06:20,1.075,1.809,1.180,2.038,1.417,0.560,1.027,0.952,�k�k��,6.4,��
2017/01/30,06:30,1.075,1.808,1.182,2.041,1.414,0.561,1.027,0.952,�k�k��,7.7,��
2017/01/30,06:40,1.074,1.809,1.178,2.037,1.412,0.562,1.026,0.952,�k�k��,7.5,��
2017/01/30,06:50,1.074,1.810,1.179,2.041,1.414,0.560,1.028,0.954,�k�k��,7.5,��
2017/01/30,07:00,1.072,1.806,1.179,2.038,1.414,0.560,1.027,0.953,�k�k��,7.4,��
2017/01/30,07:10,1.072,1.809,1.173,2.036,1.413,0.561,1.026,0.951,�k�k��,8.5,��
2017/01/30,07:20,1.074,1.810,1.179,2.039,1.415,0.561,1.027,0.952,�k�k��,8.3,��
2017/01/30,07:30,1.072,1.810,1.179,2.039,1.416,0.560,1.027,0.950,�k�k��,9.3,��
2017/01/30,07:40,1.075,1.810,1.178,2.038,1.414,0.561,1.025,0.953,�k�k��,8.9,��
2017/01/30,07:50,1.074,1.810,1.178,2.041,1.416,0.560,1.028,0.952,�k�k��,8.4,��
2017/01/30,08:00,1.075,1.808,1.181,2.038,1.415,0.562,1.027,0.954,�k�k��,8.5,��
2017/01/30,08:10,1.074,1.811,1.177,2.039,1.416,0.561,1.027,0.953,�k�k��,7.1,��
2017/01/30,08:20,1.077,1.810,1.176,2.038,1.414,0.562,1.028,0.952,�k�k��,5.9,��
2017/01/30,08:30,1.076,1.805,1.178,2.041,1.417,0.563,1.028,0.953,�k,5.8,��
2017/01/30,08:40,1.075,1.810,1.176,2.042,1.417,0.561,1.029,0.953,�k�k��,5.6,��
2017/01/30,08:50,1.076,1.809,1.173,2.041,1.415,0.563,1.027,0.954,�k�k��,5.9,��
2017/01/30,09:00,1.075,1.811,1.173,2.043,1.417,0.562,1.030,0.953,�k,5.5,��
2017/01/30,09:10,1.076,1.805,1.175,2.043,1.419,0.561,1.028,0.955,�k,5.1,��
2017/01/30,09:20,1.078,1.807,1.170,2.041,1.414,0.562,1.026,0.952,�k�k��,4.1,��
2017/01/30,09:30,1.076,1.810,1.173,2.043,1.417,0.563,1.026,0.953,�k�k��,4.6,��
2017/01/30,09:40,1.075,1.808,1.175,2.042,1.417,0.562,1.026,0.953,�k�k��,3.1,��
2017/01/30,09:50,1.077,1.811,1.176,2.041,1.417,0.562,1.026,0.953,�k,3.2,��
2017/01/30,10:00,1.076,1.810,1.176,2.041,1.419,0.564,1.028,0.954,�k,4.4,��
2017/01/30,10:10,1.076,1.806,1.180,2.041,1.417,0.562,1.026,0.952,�k,4.1,��
2017/01/30,10:20,1.075,1.809,1.177,2.041,1.415,0.562,1.025,0.953,�k�k��,4.4,��
2017/01/30,10:30,1.078,1.805,1.181,-,1.420,0.563,1.025,0.953,�k�k��,4.0,��
2017/01/30,10:40,1.077,1.807,1.177,-,1.419,0.563,1.027,0.954,�k,3.6,��
2017/01/30,10:50,1.076,1.807,1.178,-,1.419,0.561,1.026,0.954,�k,3.1,��
2017/01/30,11:00,1.080,1.811,1.180,-,1.417,0.563,1.026,0.954,�k,3.1,��
2017/01/30,11:10,1.080,1.811,1.180,-,1.420,0.564,1.028,0.954,�k,2.6,��
2017/01/30,11:20,1.080,1.813,1.182,-,1.419,0.563,1.028,0.954,�k,2.6,��
2017/01/30,11:30,1.080,1.812,1.178,-,1.418,0.564,1.024,0.954,�k,1.9,��
2017/01/30,11:40,1.077,1.812,1.180,-,1.419,0.563,1.027,0.955,�k,1.7,��
2017/01/30,11:50,1.079,1.807,1.180,-,1.421,0.564,1.028,0.954,�k,1.7,��
2017/01/30,12:00,1.079,1.808,1.178,-,1.420,0.564,1.028,0.955,�k�k��,2.9,��
2017/01/30,12:10,1.078,1.807,1.177,-,1.422,0.564,1.028,0.954,�k�k��,3.0,��
2017/01/30,12:20,1.079,1.814,1.178,-,1.421,0.566,1.027,0.956,�k,3.4,��
2017/01/30,12:30,1.081,1.812,1.179,-,1.421,0.565,1.029,0.954,�k,2.3,��
2017/01/30,12:40,1.082,1.813,1.179,-,1.424,0.565,1.030,0.955,�k�k��,2.8,��
2017/01/30,12:50,1.082,1.814,1.181,-,1.422,0.565,1.027,0.956,�k�k��,4.5,��
2017/01/30,13:00,1.081,1.813,1.185,-,1.424,0.565,1.028,0.955,�k�k��,2.2,��
2017/01/30,13:10,1.084,1.814,1.183,-,1.423,0.566,1.026,0.954,��,4.2,��
2017/01/30,13:20,1.086,1.815,1.184,-,1.420,0.568,1.030,0.958,��,10.4,��
2017/01/30,13:30,1.089,1.816,1.184,-,1.421,0.569,1.028,0.957,��,12.1,��
2017/01/30,13:40,1.085,1.812,1.183,-,1.418,0.565,1.029,0.957,��,12.2,��
2017/01/30,13:50,1.088,1.816,1.179,-,1.421,0.566,1.027,0.956,���쐼,9.3,��
2017/01/30,14:00,1.085,1.809,1.179,-,1.419,0.566,1.027,0.956,���쐼,8.1,��
2017/01/30,14:10,1.084,1.813,1.178,-,1.420,0.567,1.028,0.953,��,8.8,��
2017/01/30,14:20,1.084,1.816,1.179,-,1.419,0.566,1.029,0.952,���쐼,10.5,��
2017/01/30,14:30,1.083,1.809,1.177,-,1.421,0.567,1.028,0.952,���쐼,11.9,��
2017/01/30,14:40,1.082,1.813,1.179,-,1.422,0.565,1.029,0.952,��,11.4,��
2017/01/30,14:50,1.083,1.813,1.181,-,1.422,0.566,1.029,0.951,��,11.8,��
2017/01/30,15:00,1.081,1.812,1.180,-,1.421,0.564,1.027,0.956,���쐼,11.8,��
2017/01/30,15:10,1.083,1.810,1.181,-,1.422,0.565,1.029,0.952,��,11.6,��
2017/01/30,15:20,1.083,1.808,1.181,-,1.421,0.567,1.030,0.954,��,10.7,��
2017/01/30,15:30,1.081,1.814,1.180,-,1.422,0.567,1.029,0.955,���쐼,10.4,��
2017/01/30,15:40,1.082,1.817,1.181,2.048,1.422,0.565,1.027,0.955,��,11.3,��
2017/01/30,15:50,1.083,1.817,1.183,2.049,1.422,0.566,1.029,0.958,��,9.1,��
2017/01/30,16:00,1.083,1.817,1.181,2.046,1.419,0.568,1.029,0.955,��,11.7,��
2017/01/30,16:10,1.082,1.817,1.181,2.050,1.421,0.567,1.031,0.956,��,11.1,��
2017/01/30,16:20,1.082,1.812,1.183,2.049,1.423,0.568,1.029,0.956,��,9.0,��
2017/01/30,16:30,1.083,1.815,1.180,2.050,1.420,0.566,1.029,0.956,���쐼,10.8,��
2017/01/30,16:40,1.082,1.817,1.182,2.048,1.424,0.568,1.029,0.956,���쐼,9.7,��
2017/01/30,16:50,1.083,1.819,1.179,2.047,1.423,0.566,1.030,0.956,��,10.5,��
2017/01/30,17:00,1.082,1.815,1.180,2.050,1.422,0.568,1.029,0.955,��,8.7,��
2017/01/30,17:10,1.079,1.815,1.180,2.047,1.426,0.566,1.028,0.956,���k��,10.5,��
2017/01/30,17:20,1.080,1.815,1.183,2.048,1.425,0.565,1.027,0.955,���k��,10.7,�L
2017/01/30,17:30,1.081,1.811,1.182,2.050,1.424,0.565,1.028,0.955,���k��,11.3,��
2017/01/30,17:40,1.079,1.817,1.180,2.047,1.425,0.567,1.029,0.955,�k��,9.1,��
2017/01/30,17:50,1.079,1.815,1.182,2.048,1.424,0.566,1.030,0.954,�k��,9.4,��
2017/01/30,18:00,1.080,1.813,1.177,2.048,1.427,0.564,1.030,0.953,���k��,7.5,��
2017/01/30,18:10,1.079,1.814,1.178,2.048,1.424,0.564,1.031,0.954,�k��,8.6,��
2017/01/30,18:20,1.077,1.814,1.179,2.045,1.425,0.565,1.029,0.956,�k�k��,6.3,��
2017/01/30,18:30,1.078,1.815,1.178,2.047,1.423,0.564,1.030,0.952,�k�k��,5.5,��
2017/01/30,18:40,1.079,1.816,1.178,2.047,1.426,0.564,1.029,0.954,�k,6.0,��
2017/01/30,18:50,1.076,1.813,1.177,2.044,1.425,0.565,1.029,0.954,�k�k��,6.6,��
2017/01/30,19:00,1.075,1.813,1.178,2.048,1.424,0.563,1.026,0.955,�k�k��,6.9,��
2017/01/30,19:10,1.075,1.814,1.178,2.045,1.424,0.564,1.028,0.954,�k�k��,8.7,��
2017/01/30,19:20,1.076,1.816,1.178,2.045,1.422,0.564,1.027,0.953,�k�k��,9.7,��
2017/01/30,19:30,1.077,1.813,1.177,2.045,1.422,0.562,1.029,0.951,�k��,7.1,��
2017/01/30,19:40,1.076,1.815,1.177,2.047,1.423,0.562,1.029,0.954,�k��,8.6,��
2017/01/30,19:50,1.076,1.814,1.176,2.046,1.421,0.562,1.027,0.954,�k��,8.6,��
2017/01/30,20:00,1.075,1.814,1.177,2.043,1.425,0.560,1.028,0.954,�k��,7.9,��
2017/01/30,20:10,1.074,1.812,1.176,2.046,1.420,0.563,1.028,0.954,�k��,7.7,��
2017/01/30,20:20,1.075,1.814,1.176,2.045,1.423,0.563,1.027,0.953,�k��,7.6,��
2017/01/30,20:30,1.074,1.813,1.174,2.047,1.421,0.563,1.028,0.953,�k��,5.1,��
2017/01/30,20:40,1.075,1.813,1.175,2.044,1.423,0.561,1.028,0.953,�k��,5.6,��
2017/01/30,20:50,1.074,1.811,1.174,2.044,1.423,0.562,1.027,0.954,�k�k��,5.1,��
2017/01/30,21:00,1.076,1.811,1.176,2.045,1.422,0.562,1.026,0.952,�k�k��,5.5,��
2017/01/30,21:10,1.073,1.813,1.176,2.043,1.423,0.561,1.028,0.953,�k�k��,8.2,��
2017/01/30,21:20,1.073,1.813,1.175,2.047,1.423,0.562,1.026,0.953,�k�k��,6.1,�L
2017/01/30,21:30,1.074,1.811,1.176,2.043,1.423,0.561,1.026,0.954,�k�k��,6.1,�L
2017/01/30,21:40,1.073,1.815,1.175,2.044,1.422,0.563,1.028,0.953,�k�k��,6.2,��
2017/01/30,21:50,1.073,1.812,1.175,2.045,1.420,0.561,1.027,0.954,�k�k��,5.2,��
2017/01/30,22:00,1.071,1.810,1.177,2.044,1.422,0.560,1.025,0.952,�k�k��,6.2,��
2017/01/30,22:10,1.075,1.814,1.173,2.043,1.419,0.559,1.027,0.952,�k�k��,5.8,�L
2017/01/30,22:20,1.071,1.813,1.175,2.042,1.421,0.562,1.026,0.954,�k�k��,9.2,�L
2017/01/30,22:30,1.073,1.810,1.173,2.043,1.422,0.559,1.026,0.951,�k�k��,9.0,�L
2017/01/30,22:40,1.072,1.807,1.174,2.045,1.421,0.560,1.025,0.952,�k�k��,9.1,�L
2017/01/30,22:50,1.071,1.807,1.173,2.045,1.419,0.562,1.025,0.953,�k�k��,8.6,�L
2017/01/30,23:00,1.071,1.812,1.174,2.041,1.419,0.559,1.026,0.952,�k��,7.6,�L
2017/01/30,23:10,1.070,1.811,1.173,2.041,1.419,0.558,1.027,0.950,�k��,6.9,�L
2017/01/30,23:20,1.070,1.809,1.174,2.040,1.419,0.561,1.025,0.951,�k��,6.7,�L
2017/01/30,23:30,1.070,1.806,1.175,2.041,1.421,0.559,1.025,0.951,�k�k��,6.6,�L
2017/01/30,23:40,1.072,1.805,1.173,2.040,1.416,0.559,1.024,0.951,�k��,5.1,��
2017/01/30,23:50,1.068,1.806,1.173,2.038,1.415,0.563,1.025,0.951,�k�k��,4.4,�L
